Regional Weather Roundup
Issued by NWS

Home | Current Version | Previous Version | Text Only | Print | Product List | Glossary On
Versions: 1 2 3 4 5 6 7 8 9 10 11 12 13 14 15 16 17 18 19 20 21 22 23 24 25 26 27 28 29 30 31 32 33 34 35 36 37 38 39 40 41 42 43 44 45 46 47 48 49 50
000
ASUS43 KMPX 170710
RWRMN
WEATHER ROUNDUP FOR MINNESOTA
NATIONAL WEATHER SERVICE TWIN CITIES/CHANHASSEN MN
100 AM CST FRI NOV 17 2017


NOTE: "FAIR" INDICATES FEW OR NO CLOUDS BELOW 12,000 FEET WITH NO
SIGNIFICANT WEATHER AND/OR OBSTRUCTIONS TO VISIBILITY. N/A MEANS
CURRENT SKY AND/OR WEATHER CONDITIONS ARE NOT AVAILABLE.

MNZ060>063-068>070-170800-
   Twin Cities Metro

CITY           SKY/WX    TMP DP  RH WIND       PRES   REMARKS
TWIN CITIES    CLOUDY    35  29  78 S16       29.93F WCI  25
ST PAUL        CLOUDY    35  29  78 SE15      29.95F WCI  25
CRYSTAL        CLOUDY    35  26  69 SE15G24   29.91F WCI  25
BLAINE         CLOUDY    36  28  75 SE17      29.91F
LAKEVILLE      CLOUDY    34  28  80 SE14G21   29.92F WCI  24
EDEN PRAIRIE   CLOUDY    36  28  73 SE15      29.90F
SOUTH ST PAUL  CLOUDY    35  28  77 SE9       29.95S WCI  28
LAKE ELMO      CLOUDY    34  30  86 SE12G20   29.95F WCI  25
$$
MNZ001>005-007-008-013>017-022>024-027-028-170800-
   Northwest Minnesota

CITY           SKY/WX    TMP DP  RH WIND       PRES   REMARKS
BEMIDJI        CLOUDY    30  24  80 SE16G22   29.67F WCI  18
HALLOCK        CLOUDY    32  28  86 S18       29.62R WCI  20
ROSEAU         CLOUDY    30  25  80 S15G21    29.64S WCI  19
WARROAD        CLOUDY    30  25  80 S16       29.65S WCI  19
THIEF RVR FALL CLOUDY    32  26  78 S14G22    29.66R WCI  22
CROOKSTON      CLOUDY    34  28  80 SW13      29.67R WCI  25
FOSSTON        PTCLDY    30  25  80 S16G23    29.64R WCI  19
DETROIT LAKES  CLOUDY    32  28  86 SE12      29.67F WCI  23
MOORHEAD       CLOUDY    34  27  75 S23G35    29.64R WCI  22
PARK RAPIDS    CLOUDY    31  25  78 SE17G29   29.71F WCI  19
MAHNOMEN       CLOUDY    33  26  77 S18G29    29.62F WCI  22
$$
MNZ006-009>011-018-025>026-170800-
   North Central Minnesota

CITY           SKY/WX    TMP DP  RH WIND       PRES   REMARKS
BAUDETTE       CLOUDY    29  23  78 SE16G25   29.67F WCI  17
FLAG ISLAND    CLOUDY    28  25  86 S29       29.64F WCI  13
INTL FALLS     CLOUDY    30  22  72 S17G30    29.74F WCI  18
WASKISH        PTCLDY    30  25  80 SE16G29   29.68F WCI  19
BIG FORK       CLOUDY    28  25  86 SE12G23   29.76F WCI  18
LONGVILLE      CLOUDY    30  25  80 SE14G22   29.75F WCI  20
GRAND RAPIDS   CLOUDY    29  24  82 SE16G23   29.80F WCI  17
CRANE LAKE     CLOUDY    28  25  86 SE9       29.83F WCI  20
ORR            CLOUDY    28  21  74 SE15G24   29.78F WCI  17
COOK           CLOUDY    28  25  86 SE15G24   29.82F WCI  17
WALKER         PTSUNNY   30  24  79 SE15G21   29.72F WCI  19
$$
MNZ012-019>021-037-170800-
   Northeast Minnesota

CITY           SKY/WX    TMP DP  RH WIND       PRES   REMARKS
DULUTH         CLOUDY    29  26  89 SE17      29.89F WCI  17
ELY            CLOUDY    28  27  93 SE14G26   29.88F WCI  17
HIBBING        CLOUDY    28  23  81 SE14G24   29.84F WCI  17
EVELETH        CLOUDY    27  21  80 SE13G23   29.86F WCI  16
DULUTH HARBOR  CLOUDY    34  28  80 E8        29.95F WCI  27
TWO HARBORS    CLOUDY    34  28  80 E9        29.92F WCI  26
SILVER BAY     CLOUDY    32  28  86 E12       29.94F WCI  23
GRAND MARAIS     N/A     32  30  92 E15       30.05F WCI  22
G MARAIS ARPRT LGT SNOW  25  21  86 SE14G23   29.97F WCI  13
$$
MNZ029>031-032-039>041-046>048-054>057-064-170800-
   West Central Minnesota

CITY           SKY/WX    TMP DP  RH WIND       PRES   REMARKS
FERGUS FALLS   CLOUDY    34  27  75 S21G29    29.68S WCI  22
WHEATON        CLOUDY    34  27  75 SE21G29   29.63S WCI  22
MORRIS         CLOUDY    34  28  80 SE28G33   29.63F WCI  20
ALEXANDRIA     CLOUDY    33  27  78 SE23G29   29.71F WCI  21
ELBOW LAKE     CLOUDY    33  27  79 E23G36    29.65F HAZE    WCI  21
WADENA         CLOUDY    30  27  86 SE18G25   29.69F WCI  18
GLENWOOD       CLOUDY    34  28  80 SE22G32   29.71F WCI  22
APPLETON       CLOUDY    36  28  75 SE18G26   29.65F
BENSON         CLOUDY    34  28  80 S22G29    29.69F WCI  22
ORTONVILLE     CLOUDY    34  27  75 MISG      29.60F
MADISON        CLOUDY    37  30  75 SE20      29.65F
WILLMAR        FAIR      34  30  86 SE24G35   29.74F WCI  21
$$
MNZ033>034-036-042>043-049>051-058-059-170800-
   Central Minnesota

CITY           SKY/WX    TMP DP  RH WIND       PRES   REMARKS
ST CLOUD       CLOUDY    33  28  81 SE22G30   29.82F WCI  21
SAUK CENTRE    FAIR      32  27  83 SE20G28   29.74F WCI  20
PAYNESVILLE    CLOUDY    33  30  87 SE23G32   29.77F WCI  21
AITKIN         CLOUDY    30  25  80 SE16G22   29.79F WCI  19
PINE RIVER     CLOUDY    30  25  80 SE17G23   29.79F WCI  18
BRAINERD       CLOUDY    34  26  72 S15G25    29.77F WCI  24
STAPLES        CLOUDY    30  25  80 SE13G18   29.74F WCI  20
LONG PRAIRIE   MOCLDY    32  27  80 E23G30    29.74F WCI  19
LITTLE FALLS   CLOUDY    32  23  69 SE17G24   29.78F WCI  21
LITCHFIELD     CLOUDY    36  30  80 SE16G24   29.80F
BUFFALO        MOCLDY    34  28  77 SE12G18   29.87F WCI  25
MAPLE LAKE     MOCLDY    34  30  85 SE13G21   29.85F WCI  25
HUTCHINSON     CLOUDY    34  30  84 SE14G23     N/A  WCI  25
$$
MNZ037-044-045-052-053-170800-
   East Central Minnesota

CITY           SKY/WX    TMP DP  RH WIND       PRES   REMARKS
PRINCETON      MOCLDY    34  28  80 SE18G24   29.86F WCI  23
MORA           CLOUDY    32  27  80 S13G18    29.90F WCI  22
CAMBRIDGE      CLOUDY    36  27  69 SE13G23   29.89F
RUSH CITY      CLOUDY    33  27  79 SE14G29   29.90F WCI  23
MOOSE LAKE     CLOUDY    32  27  80 S6        29.87F WCI  26
HINCKLEY       CLOUDY    34  28  80 S10G18    29.90F WCI  26
CLOQUET        CLOUDY    28  25  86 SE7       29.89F WCI  21
MCGREGOR       CLOUDY    32  28  86 SE15G22   29.84F WCI  22
$$
MNZ071>073-080-081-089-090-097-098-170800-
   Southwest Minnesota

CITY           SKY/WX    TMP DP  RH WIND       PRES   REMARKS
MONTEVIDEO     CLOUDY    34  28  80 S16G25    29.68F WCI  23
GRANITE FALLS  CLOUDY    37  30  78 SE18G26   29.72F
CANBY          CLOUDY    41  29  64 S18G28    29.63F
MARSHALL       CLOUDY    37  28  70 S26       29.67F
REDWOOD FALLS  CLOUDY    35  27  72 SE25G33   29.77F WCI  23
OLIVIA         CLOUDY    34  30  86 SE20G25   29.76F WCI  22
PIPESTONE      CLOUDY    36  27  69 S22G28    29.66F
WINDOM           N/A     36  21  55 SE18G29   29.77F
WORTHINGTON    CLOUDY    33  27  78 S23G29    29.74F WCI  21
JACKSON        CLOUDY    34  28  80 S22G29    29.81F WCI  22
SLAYTON        CLOUDY    34  29  81 S18       29.73F WCI  23
$$
MNZ065>067-074>077-082>085-091>093-170800-
   South Central Minnesota

CITY           SKY/WX    TMP DP  RH WIND       PRES   REMARKS
MANKATO        CLOUDY    34  28  79 SE18G26   29.87F WCI  23
NEW ULM        CLOUDY    34  27  75 S16G23    29.83F WCI  23
ST JAMES       CLOUDY    34  28  80 SE20G28   29.83F WCI  22
FAIRMONT       CLOUDY    33  28  81 S22G28    29.84F WCI  21
GLENCOE        CLOUDY    36  30  80 SE15G21   29.86F
FARIBAULT      CLOUDY    36  28  75 SE14G21   29.93S
OWATONNA       CLOUDY    34  28  80 SE18      29.93S WCI  23
WASECA         CLOUDY    34  30  86 SE15G23   29.93R WCI  24
ALBERT LEA     CLOUDY    34  27  75 S18G28    29.92F WCI  23
$$
MNZ078>079-086>088-094>096-170800-
   Southeast Minnesota

CITY           SKY/WX    TMP DP  RH WIND       PRES   REMARKS
ROCHESTER      CLOUDY    32  28  85 S20G26    29.97F WCI  20
RED WING       CLOUDY    36  27  69 SE13G20   29.97F
STANTON        CLOUDY    36  29  77 SE14G23   29.94F
DODGE CENTER   CLOUDY    32  28  86 SE22G28   29.92F WCI  19
WINONA         CLOUDY    34  28  80 SE6       30.05S WCI  29
AUSTIN         CLOUDY    32  28  86 SE13G21   29.95F WCI  22
PRESTON        CLOUDY    31  27  83 S20       30.00F WCI  19
$$
ABBREVIATIONS USED IN REMARKS
   TC - TEMPERATURES IN CELSIUS
  WCI - WIND CHILL INDEX
   HX - HEAT INDEX
  VSB - VISIBILITY
$$




USA.gov is the U.S. government's official web portal to all federal, state and local government web resources and services.